COSMOS 2491 DEB *, 45128

Orbit data source: Space-Track

COSMOS 2491 DEB *, 45128 is space debris in LEO originally from a launch on Wed, 25 Dec 2013 UTC launched from the Plesetsk Missile And Space Complex (PKMTR). Debris objects in space refer to the collection of defunct objects orbiting the Earth. Examples of debris include non-operational satellites, rocket bodies, and fragments generated from explosions, collisions, or faulty payload assembly.

Loading next visibility...
COSMOS 2491 DEB * details
Identifier
45128, 2013-076AA
Orbit
LEO
Last TLE update5 months ago
Origin
Flag of CISTsNIIKhM (CIS)
ManufacturerTsNIIKhM
MissionSpacecraft
Bus & MotorUnknown
MassUnknown
Launch date (UTC)
2013-12-25 (11 years ago)
Launch vehicleUnknown
Launch site
Plesetsk Missile And Space Complex (PKMTR)
Object type
Payload
Rocket body
Debris
Shape & HBRUnknown
Radar Cross SectionSmall (<0.1 m²)

Expand to show TLE details & history

TLE from 5 months ago
0 COSMOS 2491 DEB *
1 45128U 13076AA  24222.54886516  .00013843  00000-0  52388-2 0  9999
2 45128  81.2112 331.3769 0022131  98.3536 262.0157 14.30986863235351
Epoch: 2024-08-09T13:10Z
Definitive object data (Epoch: 2024-08-09T13:10:21.949Z)
Latitude-0°
Longitude175.26376°
Altitude793.599 km
Speed7.456 km/s
True Right ascension22h 05m 30s
True Declination0° 00' 00"
Sunlit
Object was in full shadow at TLE epoch
Visualization TLE readout
Latitude77.02321°
Longitude76.27192°
Altitude774.454 km
Speed7.481 km/s
Apparent Right ascension20h 49m 34s
Apparent Declination30° 20' 53"
Sunlit
Object is in daylight
Visualization observer readout
Local Sidereal Time10:05:08
Azimuth17.046° NNE
Elevation-17.579°
Doppler factor1
Orbital elements
Apogee altitude801.436 km
Perigee altitude769.728 km
Semi-major axis7,163.719 km
Eccentricity0.0022131
Inclination81.2112°
RAAN331.3769°
Arg. of periapsis98.3536°
True anomaly261.76465°
Mean anomaly262.0157°
Eccentric anomaly261.89017°
Mean motion3.57961 °/min
BSTAR0.0052388
Orbital period100.57 mins
Loading maneuver chart data...
Loading historical data...
Loading historical data...
Loading historical data...
Loading historical data...
Loading historical data...
Loading historical data...
Loading historical data...

COSMOS 2491 DEB * Visibility forecast

Observer location: undefined°, undefined

Span
Click to sort rows by Start time (UTC) header in descending order
Start Az.
Max El. time (UTC)
Max El. Az.
Max El.
End time (UTC)
End Az.
9 mins2024-12-26 13:48:54.900Z191.046° SSW2024-12-26 13:53:54.900Z323.688° NNW44.527°2024-12-26 13:57:54.900Z6.927° NNE
8 mins2024-12-27 00:19:54.900Z6.171° NNE2024-12-27 00:22:54.900Z55.654° ENE38.297°2024-12-27 00:27:54.900Z153.607° SSE
4 mins2024-12-27 02:02:54.900Z291.303° WNW2024-12-27 02:03:54.900Z278.003° WNW15.53°2024-12-27 02:06:54.900Z240.76° WSW
|